CAPE
0 0 0 0 0 0 0 0 0 0 0 0 0 0 0 1 2 1 2 1 1 1 3 2 1 2 0 0 0 0 0 0 0 0 0 0 351 416 1814 1530 1253 2720 3278 1658 837 641 975 1136 1346 678 280 198 337 388 6 210 168 374 338 176 255 197 155 407 672 800 966 865 1432 1486 1175 1626 1353 1179 1821 2035 1444 1658 1430 1580 1506 1831 1749 1843 1987 2042 2264 1743
0 0 0 0 0 0 0 0 0 0 0 0 0 0 0 0 1 2 1 1 1 1 1 1 1 1 1 0 0 0 0 0 0 0 0 74 0 1238 1307 2069 2179 3480 3496 664 441 484 895 1014 360 275 308 213 260 145 67 222 53 205 460 195 432 375 260 421 762 1092 919 976 1279 1306 1449 1368 1402 1404 1540 1569 1596 1437 1693 1412 1551 1681 1569 1554 1814 2364 2322 1654
0 0 0 0 0 1 0 0 0 0 0 0 0 0 0 0 1 2 2 2 1 2 1 1 2 2 0 0 0 0 0 0 0 0 0 35 86 650 1819 1950 2462 2919 1325 124 202 597 802 276 288 268 252 247 278 0 222 34 136 208 272 80 286 225 296 504 566 619 1285 1318 1502 1549 1266 859 1020 1292 1184 1317 1201 1386 1833 1934 1440 1290 1358 1195 1617 1902 1531 1552
0 0 0 0 0 0 0 0 0 0 0 0 0 0 0 0 0 2 2 3 2 2 2 1 1 0 0 0 0 0 0 0 0 0 3 249 450 787 1439 1868 2768 2724 313 0 127 480 500 199 119 110 126 152 74 40 2 52 75 0 11 70 101 138 280 319 558 818 668 1298 1385 1198 1192 1252 1102 1026 1398 1407 1109 1009 1011 1794 1696 1563 1499 1180 1329 1555 1498 1173
0 0 0 0 0 0 0 0 0 0 0 0 0 0 0 0 0 1 2 2 2 1 1 2 0 0 0 0 0 0 0 0 0 0 39 466 292 853 1476 1548 2475 352 14 0 11 360 304 202 189 62 96 108 112 14 109 125 12 92 175 240 201 104 188 324 356 604 824 1063 792 1063 1289 1117 1018 1294 1191 1110 964 443 1089 1234 1397 1578 2042 1362 1225 1497 1614 1393
0 0 0 0 0 0 0 0 0 0 0 0 0 0 0 0 1 2 3 2 2 2 1 0 0 0 0 0 0 0 0 0 1 0 714 384 395 772 1518 1626 2446 96 0 0 68 399 260 130 41 37 81 138 0 1 2 48 76 206 46 133 258 330 286 274 368 465 689 380 451 599 1155 1392 1148 1564 1470 1063 1268 874 762 1171 1261 1476 2114 1961 1673 1486 1281 1328
0 0 0 0 0 0 0 0 1 0 0 1 1 0 0 0 1 2 2 3 1 3 0 1 0 0 0 0 0 0 0 0 0 0 1096 434 374 1060 1769 1806 2711 134 0 0 125 337 299 51 74 75 14 0 0 38 20 126 107 168 203 307 248 276 457 317 668 776 611 960 888 876 1256 747 1154 999 1332 1096 886 1051 986 912 1414 1052 1816 1744 1503 1900 1970 2041
0 0 0 0 0 0 0 0 1 0 0 0 1 0 0 0 1 1 2 2 2 0 0 0 0 0 0 0 0 0 0 0 0 0 1144 910 684 1482 1608 24 0 0 0 0 170 386 232 100 52 41 58 0 3 47 70 95 74 278 456 246 268 261 178 459 575 628 1004 671 1180 1742 536 570 600 939 1377 1192 1052 947 1058 1185 1152 1142 1300 1503 1444 1556 1624 1766
0 0 0 0 0 0 0 0 0 0 0 1 0 0 0 0 0 1 1 2 2 0 0 0 0 0 0 0 0 0 0 0 0 12 589 0 0 0 0 0 0 0 0 0 150 388 191 119 16 8 0 0 0 14 24 60 139 274 254 237 241 139 324 574 721 371 1010 701 1249 1653 820 452 422 889 1196 906 827 832 1091 1299 1378 1479 1234 1123 1574 1814 1617 1804
1 0 0 0 0 0 0 0 0 0 0 0 0 0 0 0 1 1 1 1 0 1 0 0 0 0 0 0 0 0 0 0 0 32 1 0 0 0 0 0 0 0 0 16 222 281 172 82 86 0 0 0 0 14 0 93 4 230 206 259 229 317 292 222 484 731 736 862 915 1081 874 597 712 1424 1336 1204 570 749 732 1276 1486 1574 1536 1321 1796 1977 1909 1864
1 1 0 0 0 0 0 0 0 0 0 0 0 0 0 0 1 0 1 1 0 0 0 0 0 0 0 0 0 0 0 0 21 0 0 0 0 0 0 0 0 0 0 53 233 213 103 58 0 0 0 0 8 170 156 49 53 125 246 222 219 276 242 98 270 627 741 1105 899 1191 1076 1057 1031 545 553 1010 744 840 776 739 1026 1345 1426 1736 1631 1712 2025 2138
1 1 1 1 0 0 0 0 0 0 0 0 0 0 0 0 0 1 0 0 0 0 0 0 0 0 0 0 0 0 0 0 0 0 0 0 0 0 0 0 0 0 0 86 178 83 21 38 53 0 0 0 0 0 4 7 112 285 106 209 277 242 340 208 204 776 640 1002 1460 1798 1697 1272 1036 1086 360 520 877 783 791 852 1420 1457 1399 1574 1921 1690 1782 1710
2 0 1 1 0 0 0 0 0 0 0 0 0 0 0 0 0 0 0 0 0 0 0 0 0 0 0 0 0 0 0 0 0 0 0 0 0 0 0 0 0 0 0 26 48 1 0 19 26 0 0 0 0 16 53 7 88 368 212 278 268 268 520 394 193 589 718 1122 710 1020 714 306 554 458 463 403 836 896 722 1069 1300 1314 1319 1168 1384 1601 1658 1772
1 1 1 1 1 1 1 0 0 0 0 0 0 0 0 0 0 0 0 0 0 0 0 0 0 0 0 0 0 0 0 0 0 0 0 0 0 0 0 0 0 0 0 0 0 0 0 1 0 0 0 0 0 0 56 0 21 43 13 63 122 23 243 291 214 575 766 1275 1064 795 464 311 252 706 729 595 427 700 911 769 1008 1148 1225 1460 1243 1601 1572 1700
0 0 1 1 1 0 0 1 0 0 0 0 0 0 0 0 0 0 0 0 0 0 0 0 0 0 0 0 0 0 0 0 0 0 0 0 0 0 0 0 0 0 0 0 0 0 0 0 0 0 0 0 0 0 0 82 180 77 158 96 81 23 7 58 216 426 454 837 672 533 736 366 486 694 557 561 603 640 1090 894 632 1221 1166 1254 1669 1705 1676 1529
0 0 1 2 1 0 0 0 0 0 0 0 0 0 0 0 0 0 0 0 0 0 0 0 0 0 0 0 0 0 0 0 0 0 0 0 0 0 0 0 0 0 0 0 0 0 0 0 0 0 0 0 0 0 0 415 1022 1226 181 178 186 7 4 218 347 260 476 757 446 630 378 273 812 537 656 566 726 541 563 885 1096 804 1100 1435 1360 1440 1446 1636
1 0 2 2 1 2 0 0 0 0 0 0 0 0 0 0 0 0 0 0 0 0 0 203 2 0 0 0 0 0 0 0 0 0 0 0 0 0 0 0 0 0 0 0 0 0 0 0 0 0 0 0 0 0 4 187 303 216 268 299 212 38 27 114 463 313 295 608 506 356 557 484 434 586 714 750 570 389 795 748 541 573 1102 1400 1530 1422 1270 1617
0 1 0 1 1 1 0 0 0 0 0 0 0 0 0 0 0 0 0 0 0 0 0 0 0 0 0 0 0 0 0 0 0 0 0 0 0 0 0 0 0 0 0 0 0 0 0 0 0 0 0 0 0 0 74 450 129 320 189 138 338 0 2 134 278 380 187 263 664 817 561 546 478 662 633 728 534 672 722 432 587 592 691 952 1014 1572 1625 1721
2 0 0 0 1 0 0 0 0 0 0 0 0 0 0 0 0 0 0 0 0 0 0 0 0 0 0 0 0 0 0 0 0 0 0 0 0 0 0 0 0 0 0 0 0 0 0 0 0 0 0 0 0 0 3 15 36 50 16 0 0 4 7 6 75 173 39 166 188 762 380 216 450 714 645 790 439 525 593 557 648 422 978 940 1017 1064 1574 1642
1 2 0 0 0 0 0 0 0 0 0 0 0 0 0 116 144 120 0 0 0 0 0 0 0 0 0 0 0 0 0 0 0 0 0 0 0 0 0 0 0 0 0 0 0 0 0 0 0 0 0 0 0 5 2 44 56 6 10 0 0 0 1 1 68 36 0 0 4 643 761 498 784 601 829 1021 740 530 484 541 490 645 656 634 801 872 1324 1358
1 1 0 0 0 1 0 0 0 0 0 0 0 0 0 0 0 0 0 14 0 0 0 0 0 0 0 0 0 0 0 0 0 0 0 0 0 0 0 0 0 0 0 0 0 0 0 0 0 0 0 0 0 3 15 82 29 20 0 0 0 0 1 10 6 0 0 0 20 113 132 529 644 958 818 978 973 793 357 323 398 266 496 684 1033 1008 1299 1784
2 0 1 0 1 0 0 0 0 0 0 0 0 0 0 0 0 0 0 0 0 0 0 0 0 0 0 0 0 0 0 0 0 0 0 0 0 0 0 0 0 0 0 0 0 0 0 0 0 0 0 0 0 0 20 26 24 12 7 0 0 0 2 0 0 0 79 34 0 379 241 144 856 971 770 1011 1156 982 506 434 517 372 535 948 594 1170 1430 1873
2 2 1 2 0 1 0 0 0 0 0 0 0 0 0 0 0 0 0 0 0 0 0 0 0 0 0 0 0 0 0 0 0 0 0 0 0 0 0 0 0 0 0 0 0 0 0 0 0 0 0 0 0 0 0 0 30 10 0 0 0 0 0 7 0 8 41 3 0 99 19 185 762 1021 1028 1043 879 943 660 518 776 860 1111 1105 772 1403 1360 1783
2 2 2 1 2 1 0 0 0 0 0 0 0 0 0 0 0 0 0 0 0 0 0 0 0 0 0 0 0 0 0 0 0 0 0 0 0 0 0 0 0 0 0 0 0 0 0 0 0 0 0 0 0 0 0 0 0 0 0 0 0 0 0 0 20 109 0 120 8 62 2 28 516 571 824 1070 1002 998 855 450 512 653 925 793 936 1306 914 1670
2 2 2 2 2 1 0 0 0 0 0 0 0 0 0 0 0 0 0 0 0 0 0 0 0 0 0 0 0 0 0 0 0 0 0 0 0 0 0 0 0 0 0 0 0 0 0 0 0 0 0 0 0 0 0 0 0 0 0 0 0 0 0 0 0 0 0 363 68 15 11 253 383 370 357 798 905 1011 889 765 791 1231 1216 1687 1402 922 1122 1328
2 2 1 1 2 1 0 0 0 0 0 0 0 0 0 0 0 0 0 0 0 0 0 0 0 0 0 0 0 0 0 0 0 0 0 0 0 0 0 0 0 0 0 0 0 0 0 0 0 0 0 0 0 0 0 0 0 0 0 0 0 0 0 0 0 0 1 6 267 4 1 444 355 539 675 667 834 1152 1040 858 940 1465 1727 1341 1128 1160 1013 1318
1 1 1 2 1 2 0 0 0 0 0 0 0 0 0 0 0 0 0 20 0 0 0 0 0 0 0 0 0 0 0 0 0 0 0 0 0 0 0 0 0 0 0 0 0 0 0 0 0 0 0 0 0 0 0 0 0 0 0 0 0 0 0 0 0 1 0 8 271 59 205 312 177 490 554 850 908 1144 1347 1285 1143 1500 1603 1326 1250 1405 834 731
1 0 1 0 0 1 0 0 0 0 0 0 0 0 0 0 0 0 0 0 0 0 0 0 0 0 0 0 0 0 0 0 0 0 0 0 0 0 0 0 0 0 0 0 0 0 0 0 0 0 0 0 0 0 0 0 0 0 0 0 0 0 0 0 0 0 0 0 74 192 75 786 354 365 353 892 961 961 1144 1354 1022 1060 1327 1509 1106 1228 1098 574
0 0 0 0 0 0 0 0 0 0 0 0 0 0 0 0 0 0 30 2 4 0 0 0 0 0 0 0 0 0 0 0 0 0 0 0 0 0 0 0 0 0 0 0 0 0 0 0 0 0 0 0 0 0 0 0 0 0 0 0 0 0 0 0 0 0 0 0 2 9 62 23 108 127 954 922 768 811 1042 1114 1182 1330 1376 1393 973 874 669 664
0 0 0 0 0 0 0 0 0 0 0 0 0 0 0 0 0 0 0 0 0 0 0 0 0 0 0 0 0 0 0 0 0 0 0 0 0 0 0 0 0 0 0 0 0 0 0 0 0 0 0 0 0 0 0 0 0 0 0 0 0 0 0 0 0 1 0 0 0 1 0 5 0 520 429 614 528 580 607 802 1207 1343 1226 1204 801 921 852 647
0 0 0 0 0 0 0 0 0 0 0 0 0 0 0 0 0 81 33 0 0 0 0 0 0 0 0 0 0 0 0 0 0 0 0 0 0 0 0 0 0 0 0 0 0 0 0 0 0 0 0 0 0 0 0 0 0 0 0 0 0 0 0 0 0 0 0 6 20 9 2 4 30 511 272 170 151 224 435 912 1068 1031 1286 1318 1087 736 649 954
0 0 0 0 0 0 0 0 0 0 0 0 0 0 0 0 0 0 65 0 0 0 0 0 0 0 0 0 0 0 0 0 0 0 0 0 0 0 0 0 0 0 0 0 0 0 0 0 0 0 0 0 0 0 0 0 0 0 0 0 0 0 0 4 0 30 128 26 14 0 10 2 3 39 308 8 140 176 550 784 835 863 1093 1068 930 646 738 1207
0 0 0 0 0 0 0 0 0 0 0 0 0 0 0 0 48 0 0 0 0 0 0 0 0 0 0 0 0 0 0 0 0 0 0 0 0 0 0 0 0 0 0 0 0 0 0 0 0 0 0 0 0 0 0 0 0 0 0 0 0 0 0 0 0 1 0 1 9 3 7 32 17 190 25 74 42 146 319 591 740 1114 1341 1328 1117 967 778 1094
0 0 0 0 0 0 0 0 0 0 0 0 0 0 0 3 17 52 0 0 0 0 0 0 0 0 0 0 0 0 0 0 0 0 0 0 0 0 0 0 0 0 0 0 0 0 0 0 0 0 0 0 0 0 0 0 0 0 0 0 0 0 0 0 0 5 4 0 4 1 1 180 0 355 77 88 87 188 156 333 496 901 963 1265 1243 822 920 734
0 0 0 0 0 0 0 0 0 0 0 0 0 0 0 0 0 63 0 0 0 0 0 0 0 0 0 0 0 0 0 0 0 0 0 0 0 0 0 0 0 0 0 0 0 0 0 0 0 0 0 0 0 0 0 0 0 0 0 0 0 0 0 0 0 2 0 0 0 1 195 61 22 132 64 57 176 526 557 322 724 939 1244 1257 1076 920 618 796
0 0 0 0 0 0 0 0 0 0 0 0 0 0 0 0 0 0 0 0 0 0 0 0 0 0 0 0 0 0 0 0 0 0 0 0 0 0 0 0 0 0 0 0 0 0 0 0 0 0 0 0 0 0 0 0 0 0 0 0 0 0 0 0 0 2 2 0 0 0 0 1 25 66 85 330 465 481 758 595 561 758 1077 1266 1075 607 523 648
0 0 0 0 0 0 0 0 0 0 2 0 0 0 0 0 0 0 1 0 0 0 0 0 0 0 0 0 0 0 0 0 0 0 0 0 0 0 0 0 0 0 0 0 0 0 0 0 0 0 0 0 0 0 0 0 0 0 0 0 0 0 0 0 0 4 0 0 4 0 8 6 0 49 14 440 364 596 618 661 567 642 811 944 947 564 1040 845
0 0 0 0 0 0 0 1 0 3 2 0 0 0 0 0 0 0 0 0 0 0 0 0 0 0 0 0 0 0 0 0 0 0 0 0 0 0 0 0 0 0 0 0 0 0 0 0 0 0 0 0 0 0 0 0 0 0 0 0 0 3 0 0 0 0 0 4 2 1 1 1 2 22 38 103 573 507 600 704 785 980 968 891 851 744 784 604
0 0 0 0 0 0 20 8 0 14 0 0 0 0 0 0 0 0 0 0 0 0 0 0 0 0 0 0 0 0 0 0 0 0 0 0 0 0 0 0 0 0 0 0 0 0 0 0 0 0 0 0 0 0 0 0 0 0 0 0 0 0 0 0 0 0 0 0 0 6 0 68 0 0 0 344 363 690 597 504 983 975 934 1038 1325 932 674 1061
0 0 0 0 0 5 52 0 0 0 0 0 0 0 0 0 0 0 0 0 0 0 0 0 0 7 62 4 0 0 0 0 0 0 0 0 0 0 0 0 0 0 0 0 0 0 0 0 0 0 0 0 0 0 0 0 0 0 0 0 0 2 0 0 0 0 0 12 20 13 1 11 0 0 210 291 344 632 724 842 1002 1095 1228 1032 1003 881 890 1370
0 0 0 0 0 27 29 5 10 14 5 0 0 0 0 0 0 0 0 0 0 0 0 0 0 1 14 14 0 0 2 0 0 1 0 0 0 0 0 0 0 0 0 0 0 0 0 0 0 3 0 0 0 0 0 0 0 0 0 0 0 0 0 0 0 0 0 0 0 6 2 19 0 0 0 108 382 774 1068 1084 1076 1159 1070 1190 1256 831 1575 1408
0 0 0 0 26 0 19 26 38 19 0 0 0 0 0 0 0 0 0 0 0 0 0 0 0 53 106 210 99 0 2 0 0 0 1 0 0 0 0 0 0 0 0 0 0 0 0 0 0 1 1 0 0 0 0 0 0 0 0 0 0 0 0 0 0 0 0 0 0 0 2 304 192 96 135 990 960 890 958 1145 1096 961 1201 1339 1275 914 1305 1232
0 0 0 0 0 0 0 0 32 26 0 0 0 0 0 0 0 0 0 0 0 0 0 0 0 16 148 184 185 192 1 8 0 0 0 0 0 0 0 0 0 0 0 0 0 0 0 0 0 0 0 3 0 0 0 0 0 0 0 0 0 0 0 0 0 0 0 1 9 1 2 69 64 193 458 832 983 1053 1000 899 958 1050 1037 1124 1168 981 1194 1011
0 0 0 0 0 0 0 0 0 30 22 0 0 0 0 0 0 0 0 0 0 0 0 0 2 0 133 88 42 26 342 134 0 0 3 1 1 0 0 0 0 0 0 0 0 0 0 0 0 0 0 0 0 0 0 0 0 0 0 0 0 0 0 0 0 0 0 2 1 0 6 352 437 256 107 515 298 770 756 580 918 1024 861 1011 1074 1195 1152 1268
0 0 0 0 0 0 0 0 0 21 61 131 290 228 53 0 0 0 0 0 0 0 0 0 0 220 74 40 9 119 116 188 311 0 0 0 0 0 0 0 0 0 0 0 8 0 0 0 0 0 0 1 18 1 0 0 0 0 0 0 0 0 0 0 0 3 14 31 2 0 0 74 474 382 172 468 503 715 675 457 432 960 896 915 1362 1115 1300 1254
0 0 0 0 0 0 0 0 0 0 9 261 598 492 465 16 0 0 0 0 26 0 0 128 84 144 172 57 139 182 555 455 612 208 0 0 0 0 0 0 0 0 1849 462 234 0 0 0 0 0 0 1 4 18 0 0 0 0 0 0 0 0 0 0 0 40 4 20 0 4 0 183 5 89 47 81 578 363 768 680 368 821 979 1281 1465 1516 1128 1161
0 0 0 46 56 0 0 0 0 0 20 68 75 350 384 511 56 11 0 0 12 51 88 109 149 95 243 114 312 396 40 78 121 196 117 0 1 141 0 0 0 0 656 292 402 0 0 0 0 0 0 0 0 0 20 0 0 0 0 0 0 0 0 0 0 0 76 0 0 36 556 0 7 12 21 113 360 348 360 526 472 836 1096 1370 1316 1479 1310 1264
67 84 0 0 0 41 0 0 0 95 133 462 619 632 432 391 525 96 0 0 0 6 45 178 96 46 270 240 156 322 41 82 147 327 224 109 107 290 2 0 0 1150 0 0 0 0 0 0 0 0 0 0 0 0 2 2 0 0 0 0 0 0 0 0 0 0 0 0 8 121 90 0 0 25 61 228 375 623 365 440 846 825 716 1044 1531 1529 1466 1512
0 0 1 0 4 19 22 28 32 148 470 275 537 563 321 243 241 462 35 4 0 29 113 52 109 88 28 150 244 475 392 118 615 403 665 393 237 215 313 19 0 0 0 0 0 0 0 0 0 0 0 0 0 0 0 0 0 0 0 0 0 0 0 0 0 0 0 0 0 0 277 3 10 10 0 58 116 76 246 436 540 766 915 1364 1816 1749 1587 1611
0 0 0 0 0 0 0 1 14 2 154 1060 530 520 302 331 80 391 218 16 18 0 141 108 83 91 54 35 424 396 403 293 340 733 401 277 439 389 194 183 354 271 0 0 0 0 0 0 0 0 0 0 0 0 0 0 0 0 15 0 0 0 0 0 0 0 0 0 0 0 0 194 290 1167 749 708 515 333 1401 1531 1660 1379 1242 1386 1483 1530 1372 1317
0 0 0 0 0 0 2 11 29 89 179 441 264 165 88 136 163 146 633 25 58 279 96 209 143 145 245 109 350 466 194 344 375 319 286 264 244 282 74 80 96 132 245 6 0 0 0 0 0 0 0 0 0 0 0 0 0 0 0 0 0 0 0 2 0 0 0 0 0 0 3 417 691 516 541 596 420 544 1426 1175 1100 1148 1071 1764 2157 1370 1447 1300
0 0 0 0 0 0 0 0 0 0 0 57 107 81 90 146 94 82 721 110 96 422 90 220 396 284 353 316 451 296 221 276 45 42 176 148 127 57 95 119 47 88 38 50 2 0 0 0 0 0 0 0 0 0 0 0 0 0 0 0 0 0 0 0 0 5 18 5 0 28 701 598 542 583 482 310 571 716 1326 1322 1500 1398 1251 1419 1584 1686 944 1137
Wind_Speed
nan nan nan nan nan nan nan nan nan nan nan nan nan nan nan nan nan nan nan nan nan nan nan nan nan nan nan nan nan nan nan nan nan nan nan nan 3 7 6 12 16 18 16 14 17 17 18 19 19 17 19 17 15 21 nan 17 15 13 14 11 8 9 9 8 12 10 12 13 12 11 9 10 10 12 10 8 6 13 15 20 24 25 27 24 23 19 17 15
nan nan nan nan nan nan nan nan nan nan nan nan nan nan nan nan nan nan nan nan nan nan nan nan nan nan nan nan nan nan nan nan nan nan nan nan nan 12 13 14 16 16 15 16 17 17 18 17 16 16 17 16 16 14 nan 13 nan 11 14 14 6 8 12 8 17 20 16 13 12 11 14 13 9 9 10 7 6 8 11 11 16 21 24 27 24 20 18 15
nan nan nan nan nan nan nan nan nan nan nan nan nan nan nan nan nan nan nan nan nan nan nan nan nan nan nan nan nan nan nan nan nan nan nan nan nan 17 16 17 16 16 18 16 16 17 17 15 14 13 15 14 14 nan 3 nan 9 12 17 nan 10 8 12 12 11 15 17 14 10 13 13 10 8 8 7 5 5 4 8 11 11 16 22 20 19 21 18 14
nan nan nan nan nan nan nan nan nan nan nan nan nan nan nan nan nan nan nan nan nan nan nan nan nan nan nan nan nan nan nan nan nan nan nan 22 19 18 18 17 17 17 18 nan 16 16 15 16 15 12 13 14 nan nan nan nan nan nan nan nan 6 8 9 7 11 12 12 15 16 10 9 11 10 7 6 7 4 3 1 2 4 10 17 14 14 14 11 10
nan nan nan nan nan nan nan nan nan nan nan nan nan nan nan nan nan nan nan nan nan nan nan nan nan nan nan nan nan nan nan nan nan nan nan 15 20 18 18 17 16 17 nan nan nan 18 16 17 15 nan nan 10 14 nan 10 13 nan nan 4 2 2 6 9 7 7 7 4 10 11 10 9 8 11 7 6 7 4 3 4 7 6 5 12 17 12 8 9 11
nan nan nan nan nan nan nan nan nan nan nan nan nan nan nan nan nan nan nan nan nan nan nan nan nan nan nan nan nan nan nan nan nan nan 12 11 12 16 16 16 15 nan nan nan nan 16 14 15 nan nan nan 13 nan nan nan nan nan 2 nan 1 2 10 11 6 9 4 7 2 3 8 7 10 8 9 7 6 3 9 9 9 10 10 11 13 15 11 10 8
nan nan nan nan nan nan nan nan nan nan nan nan nan nan nan nan nan nan nan nan nan nan nan nan nan nan nan nan nan nan nan nan nan nan 12 17 13 12 12 12 11 13 nan nan 15 14 13 nan nan nan nan nan nan nan nan 4 3 2 3 2 5 9 12 10 11 10 8 5 3 4 14 8 11 11 9 9 8 11 12 5 9 14 12 13 13 12 11 11
nan nan nan nan nan nan nan nan nan nan nan nan nan nan nan nan nan nan nan nan nan nan nan nan nan nan nan nan nan nan nan nan nan nan 10 14 15 12 12 nan nan nan nan nan 13 13 11 11 nan nan nan nan nan nan nan nan nan 8 5 5 5 12 11 7 10 12 10 8 3 6 2 2 4 11 10 10 7 7 12 16 11 12 13 14 13 15 13 13
nan nan nan nan nan nan nan nan nan nan nan nan nan nan nan nan nan nan nan nan nan nan nan nan nan nan nan nan nan nan nan nan nan nan 16 nan nan nan nan nan nan nan nan nan 14 13 9 10 nan nan nan nan nan nan nan nan 7 9 7 6 6 10 11 12 13 8 10 10 6 1 1 2 3 7 9 9 9 9 11 10 13 10 5 8 12 15 15 15
nan nan nan nan nan nan nan nan nan nan nan nan nan nan nan nan nan nan nan nan nan nan nan nan nan nan nan nan nan nan nan nan nan nan nan nan nan nan nan nan nan nan nan nan 12 12 11 nan nan nan nan nan nan nan nan nan nan 2 9 9 9 7 8 8 9 12 10 12 9 7 1 3 3 6 5 9 10 8 12 13 15 13 9 6 8 12 13 13
nan nan nan nan nan nan nan nan nan nan nan nan nan nan nan nan nan nan nan nan nan nan nan nan nan nan nan nan nan nan nan nan nan nan nan nan nan nan nan nan nan nan nan nan 12 10 11 nan nan nan nan nan nan 10 3 nan nan 9 9 8 11 5 7 nan 10 12 10 12 13 14 10 7 7 6 5 9 10 6 7 11 13 14 12 8 10 11 12 12
nan nan nan nan nan nan nan nan nan nan nan nan nan nan nan nan nan nan nan nan nan nan nan nan nan nan nan nan nan nan nan nan nan nan nan nan nan nan nan nan nan nan nan nan 9 nan nan nan nan nan nan nan nan nan nan nan 5 17 8 11 7 9 7 7 4 13 10 11 14 16 14 10 12 5 7 10 9 10 5 8 10 12 15 15 13 12 12 12
nan nan nan nan nan nan nan nan nan nan nan nan nan nan nan nan nan nan nan nan nan nan nan nan nan nan nan nan nan nan nan nan nan nan nan nan nan nan nan nan nan nan nan nan nan nan nan nan nan nan nan nan nan nan nan nan nan 15 10 1 7 10 9 11 12 13 16 14 16 18 15 14 10 8 8 10 8 7 5 5 7 9 10 13 12 12 13 14
nan nan nan nan nan nan nan nan nan nan nan nan nan nan nan nan nan nan nan nan nan nan nan nan nan nan nan nan nan nan nan nan nan nan nan nan nan nan nan nan nan nan nan nan nan nan nan nan nan nan nan nan nan nan nan nan nan nan nan nan 6 nan 11 14 14 16 17 19 18 17 14 13 10 9 7 7 6 4 7 2 4 8 11 12 11 11 12 15
nan nan nan nan nan nan nan nan nan nan nan nan nan nan nan nan nan nan nan nan nan nan nan nan nan nan nan nan nan nan nan nan nan nan nan nan nan nan nan nan nan nan nan nan nan nan nan nan nan nan nan nan nan nan nan nan 13 nan 5 nan nan nan nan nan 19 23 17 21 20 17 15 16 13 9 8 7 5 4 4 2 3 5 7 11 11 10 12 14
nan nan nan nan nan nan nan nan nan nan nan nan nan nan nan nan nan nan nan nan nan nan nan nan nan nan nan nan nan nan nan nan nan nan nan nan nan nan nan nan nan nan nan nan nan nan nan nan nan nan nan nan nan nan nan 12 12 12 15 25 24 nan nan 19 25 31 22 24 23 18 11 13 14 12 13 9 8 4 7 3 1 3 7 8 9 9 13 13
nan nan nan nan nan nan nan nan nan nan nan nan nan nan nan nan nan nan nan nan nan nan nan 22 nan nan nan nan nan nan nan nan nan nan nan nan nan nan nan nan nan nan nan nan nan nan nan nan nan nan nan nan nan nan nan 12 12 14 18 30 30 nan nan 28 35 29 26 24 19 17 13 10 10 16 15 13 9 6 7 2 5 4 6 6 6 7 8 11
nan nan nan nan nan nan nan nan nan nan nan nan nan nan nan nan nan nan nan nan nan nan nan nan nan nan nan nan nan nan nan nan nan nan nan nan nan nan nan nan nan nan nan nan nan nan nan nan nan nan nan nan nan nan nan 12 11 16 21 25 19 nan nan 35 34 25 24 31 22 18 15 9 8 15 16 16 11 5 5 5 3 4 8 8 6 6 7 8
nan nan nan nan nan nan nan nan nan nan nan nan nan nan nan nan nan nan nan nan nan nan nan nan nan nan nan nan nan nan nan nan nan nan nan nan nan nan nan nan nan nan nan nan nan nan nan nan nan nan nan nan nan nan nan nan nan nan nan nan nan nan nan nan nan 27 nan 32 24 24 12 12 14 17 17 18 15 10 5 5 1 3 6 6 8 7 8 7
nan nan nan nan nan nan nan nan nan nan nan nan nan nan nan 21 25 27 nan nan nan nan nan nan nan nan nan nan nan nan nan nan nan nan nan nan nan nan nan nan nan nan nan nan nan nan nan nan nan nan nan nan nan nan nan nan nan nan nan nan nan nan nan nan nan nan nan nan nan 27 25 21 26 24 18 19 17 13 8 3 5 1 3 4 7 10 7 6
nan nan nan nan nan nan nan nan nan nan nan nan nan nan nan nan nan nan nan nan nan nan nan nan nan nan nan nan nan nan nan nan nan nan nan nan nan nan nan nan nan nan nan nan nan nan nan nan nan nan nan nan nan nan nan nan nan nan nan nan nan nan nan nan nan nan nan nan nan 21 17 35 22 17 19 19 20 18 11 7 3 4 3 3 3 8 6 6
nan nan nan nan nan nan nan nan nan nan nan nan nan nan nan nan nan nan nan nan nan nan nan nan nan nan nan nan nan nan nan nan nan nan nan nan nan nan nan nan nan nan nan nan nan nan nan nan nan nan nan nan nan nan nan nan nan nan nan nan nan nan nan nan nan nan nan nan nan 23 15 21 30 23 21 25 21 18 15 8 5 4 6 6 2 5 5 6
nan nan nan nan nan nan nan nan nan nan nan nan nan nan nan nan nan nan nan nan nan nan nan nan nan nan nan nan nan nan nan nan nan nan nan nan nan nan nan nan nan nan nan nan nan nan nan nan nan nan nan nan nan nan nan nan nan nan nan nan nan nan nan nan nan nan nan nan nan nan nan 21 30 24 19 21 21 17 15 13 10 8 13 7 6 7 3 4
nan nan nan nan nan nan nan nan nan nan nan nan nan nan nan nan nan nan nan nan nan nan nan nan nan nan nan nan nan nan nan nan nan nan nan nan nan nan nan nan nan nan nan nan nan nan nan nan nan nan nan nan nan nan nan nan nan nan nan nan nan nan nan nan nan 11 nan 28 nan nan nan nan 23 19 14 15 19 17 17 15 9 10 10 15 12 8 3 1
nan nan nan nan nan nan nan nan nan nan nan nan nan nan nan nan nan nan nan nan nan nan nan nan nan nan nan nan nan nan nan nan nan nan nan nan nan nan nan nan nan nan nan nan nan nan nan nan nan nan nan nan nan nan nan nan nan nan nan nan nan nan nan nan nan nan nan 25 nan nan nan 27 17 10 8 14 19 19 19 17 15 6 8 12 20 3 4 2
nan nan nan nan nan nan nan nan nan nan nan nan nan nan nan nan nan nan nan nan nan nan nan nan nan nan nan nan nan nan nan nan nan nan nan nan nan nan nan nan nan nan nan nan nan nan nan nan nan nan nan nan nan nan nan nan nan nan nan nan nan nan nan nan nan nan nan nan 30 nan nan 29 16 12 11 11 16 20 19 17 14 12 9 9 14 9 5 5
nan nan nan nan nan nan nan nan nan nan nan nan nan nan nan nan nan nan nan nan nan nan nan nan nan nan nan nan nan nan nan nan nan nan nan nan nan nan nan nan nan nan nan nan nan nan nan nan nan nan nan nan nan nan nan nan nan nan nan nan nan nan nan nan nan nan nan nan 31 nan 35 30 23 10 10 20 17 18 19 18 14 13 13 8 10 12 6 6
nan nan nan nan nan nan nan nan nan nan nan nan nan nan nan nan nan nan nan nan nan nan nan nan nan nan nan nan nan nan nan nan nan nan nan nan nan nan nan nan nan nan nan nan nan nan nan nan nan nan nan nan nan nan nan nan nan nan nan nan nan nan nan nan nan nan nan nan nan 35 nan 29 18 9 15 21 18 19 20 21 18 15 15 10 10 10 4 5
nan nan nan nan nan nan nan nan nan nan nan nan nan nan nan nan nan nan nan nan nan nan nan nan nan nan nan nan nan nan nan nan nan nan nan nan nan nan nan nan nan nan nan nan nan nan nan nan nan nan nan nan nan nan nan nan nan nan nan nan nan nan nan nan nan nan nan nan nan nan nan nan 20 17 18 18 13 16 20 20 20 19 16 12 11 8 3 4
nan nan nan nan nan nan nan nan nan nan nan nan nan nan nan nan nan nan nan nan nan nan nan nan nan nan nan nan nan nan nan nan nan nan nan nan nan nan nan nan nan nan nan nan nan nan nan nan nan nan nan nan nan nan nan nan nan nan nan nan nan nan nan nan nan nan nan nan nan nan nan nan nan 24 22 17 9 12 17 18 18 18 15 12 8 7 6 2
nan nan nan nan nan nan nan nan nan nan nan nan nan nan nan nan nan nan nan nan nan nan nan nan nan nan nan nan nan nan nan nan nan nan nan nan nan nan nan nan nan nan nan nan nan nan nan nan nan nan nan nan nan nan nan nan nan nan nan nan nan nan nan nan nan nan nan nan nan nan nan nan nan 22 21 14 11 11 17 20 19 20 19 15 8 6 6 10
nan nan nan nan nan nan nan nan nan nan nan nan nan nan nan nan nan nan nan nan nan nan nan nan nan nan nan nan nan nan nan nan nan nan nan nan nan nan nan nan nan nan nan nan nan nan nan nan nan nan nan nan nan nan nan nan nan nan nan nan nan nan nan nan nan nan 9 nan nan nan nan nan nan nan 25 nan 10 15 22 14 15 16 17 16 11 7 7 15
nan nan nan nan nan nan nan nan nan nan nan nan nan nan nan nan nan nan nan nan nan nan nan nan nan nan nan nan nan nan nan nan nan nan nan nan nan nan nan nan nan nan nan nan nan nan nan nan nan nan nan nan nan nan nan nan nan nan nan nan nan nan nan nan nan nan nan nan nan nan nan nan nan 16 nan nan nan 21 25 15 13 15 13 14 12 5 8 10
nan nan nan nan nan nan nan nan nan nan nan nan nan nan nan nan nan nan nan nan nan nan nan nan nan nan nan nan nan nan nan nan nan nan nan nan nan nan nan nan nan nan nan nan nan nan nan nan nan nan nan nan nan nan nan nan nan nan nan nan nan nan nan nan nan nan nan nan nan nan nan 27 nan 19 nan nan nan 18 22 25 20 16 11 14 12 5 7 11
nan nan nan nan nan nan nan nan nan nan nan nan nan nan nan nan nan nan nan nan nan nan nan nan nan nan nan nan nan nan nan nan nan nan nan nan nan nan nan nan nan nan nan nan nan nan nan nan nan nan nan nan nan nan nan nan nan nan nan nan nan nan nan nan nan nan nan nan nan nan 12 nan nan 18 nan nan 22 22 24 20 18 18 14 12 9 6 4 11
nan nan nan nan nan nan nan nan nan nan nan nan nan nan nan nan nan nan nan nan nan nan nan nan nan nan nan nan nan nan nan nan nan nan nan nan nan nan nan nan nan nan nan nan nan nan nan nan nan nan nan nan nan nan nan nan nan nan nan nan nan nan nan nan nan nan nan nan nan nan nan nan nan nan nan 22 22 19 23 18 14 14 14 9 8 6 3 7
nan nan nan nan nan nan nan nan nan nan nan nan nan nan nan nan nan nan nan nan nan nan nan nan nan nan nan nan nan nan nan nan nan nan nan nan nan nan nan nan nan nan nan nan nan nan nan nan nan nan nan nan nan nan nan nan nan nan nan nan nan nan nan nan nan nan nan nan nan nan nan nan nan nan nan 28 19 17 19 18 15 11 12 7 6 5 2 1
nan nan nan nan nan nan nan nan nan nan nan nan nan nan nan nan nan nan nan nan nan nan nan nan nan nan nan nan nan nan nan nan nan nan nan nan nan nan nan nan nan nan nan nan nan nan nan nan nan nan nan nan nan nan nan nan nan nan nan nan nan nan nan nan nan nan nan nan nan nan nan nan nan nan nan 26 25 14 15 16 19 18 14 11 5 2 6 7
nan nan nan nan nan nan nan nan nan nan nan nan nan nan nan nan nan nan nan nan nan nan nan nan nan nan nan nan nan nan nan nan nan nan nan nan nan nan nan nan nan nan nan nan nan nan nan nan nan nan nan nan nan nan nan nan nan nan nan nan nan nan nan nan nan nan nan nan nan nan nan nan nan nan nan 27 27 18 17 20 21 21 17 10 7 2 9 9
nan nan nan nan nan nan nan nan nan nan nan nan nan nan nan nan nan nan nan nan nan nan nan nan nan nan nan nan nan nan nan nan nan nan nan nan nan nan nan nan nan nan nan nan nan nan nan nan nan nan nan nan nan nan nan nan nan nan nan nan nan nan nan nan nan nan nan nan nan nan nan nan nan nan 24 36 30 24 19 22 18 22 19 13 11 9 3 11
nan nan nan nan nan nan nan nan nan nan nan nan nan nan nan nan nan nan nan nan nan nan nan nan nan nan nan nan nan nan nan nan nan nan nan nan nan nan nan nan nan nan nan nan nan nan nan nan nan nan nan nan nan nan nan nan nan nan nan nan nan nan nan nan nan nan nan nan nan nan nan nan nan nan nan 28 34 30 27 25 17 18 18 12 4 6 12 8
nan nan nan nan nan nan nan nan nan nan nan nan nan nan nan nan nan nan nan nan nan nan nan nan nan nan 18 18 nan nan nan nan nan nan nan nan nan nan nan nan nan nan nan nan nan nan nan nan nan nan nan nan nan nan nan nan nan nan nan nan nan nan nan nan nan nan nan nan nan nan nan 24 27 nan 24 39 38 34 31 28 21 18 18 14 8 6 10 10
nan nan nan nan nan nan nan nan nan nan nan nan nan nan nan nan nan nan nan nan nan nan nan nan nan nan 13 15 13 23 nan nan nan nan nan nan nan nan nan nan nan nan nan nan nan nan nan nan nan nan nan nan nan nan nan nan nan nan nan nan nan nan nan nan nan nan nan nan nan nan nan nan nan 22 33 43 36 34 30 29 23 19 16 14 13 10 9 9
nan nan nan nan nan nan nan nan nan nan nan nan nan nan nan nan nan nan nan nan nan nan nan nan nan nan 19 nan nan nan 30 28 nan nan nan nan nan nan nan nan nan nan nan nan nan nan nan nan nan nan nan nan nan nan nan nan nan nan nan nan nan nan nan nan nan nan nan nan nan nan nan 28 28 27 36 44 30 29 23 20 24 18 14 14 14 12 10 10
nan nan nan nan nan nan nan nan nan nan nan 24 30 32 nan nan nan nan nan nan nan nan nan nan nan 26 nan nan nan 20 25 26 25 nan nan nan nan nan nan nan nan nan nan nan nan nan nan nan nan nan nan nan nan nan nan nan nan nan nan nan nan nan nan nan nan nan nan nan nan nan nan nan 33 29 31 38 34 26 20 21 19 19 15 13 11 12 10 8
nan nan nan nan nan nan nan nan nan nan nan 30 33 30 31 nan nan nan nan nan nan nan nan 27 nan 30 21 nan 25 34 37 42 31 23 nan nan nan nan nan nan nan nan 17 17 15 nan nan nan nan nan nan nan nan nan nan nan nan nan nan nan nan nan nan nan nan nan nan nan nan nan nan 30 nan nan nan nan 28 23 21 22 19 17 15 18 13 9 8 5
nan nan nan nan nan nan nan nan nan nan nan nan nan 33 31 30 nan nan nan nan nan nan nan 21 25 nan 26 25 30 26 nan nan 34 39 30 nan nan 25 nan nan nan nan 33 25 22 nan nan nan nan nan nan nan nan nan nan nan nan nan nan nan nan nan nan nan nan nan nan nan nan nan 22 nan nan nan nan 30 29 20 15 12 19 17 13 12 14 10 6 3
nan nan nan nan nan nan nan nan nan nan 33 33 32 36 30 29 32 nan nan nan nan nan nan 27 nan nan 25 29 32 28 nan nan 31 34 41 42 37 42 nan nan nan 22 nan nan nan nan nan nan nan nan nan nan nan nan nan nan nan nan nan nan nan nan nan nan nan nan nan nan nan 23 nan nan nan nan nan 36 29 26 19 16 19 20 14 9 10 11 9 7
nan nan nan nan nan nan nan nan nan 22 34 39 35 37 34 32 34 32 nan nan nan nan 24 nan 21 nan nan 30 27 30 35 33 31 33 36 42 43 37 30 nan nan nan nan nan nan nan nan nan nan nan nan nan nan nan nan nan nan nan nan nan nan nan nan nan nan nan nan nan nan nan 13 nan nan nan nan nan 25 nan 25 22 22 22 20 14 10 8 10 8
nan nan nan nan nan nan nan nan nan nan 25 38 33 31 29 30 nan 36 27 nan nan nan 33 33 nan nan nan nan 28 29 34 29 34 34 31 40 44 40 27 19 29 30 nan nan nan nan nan nan nan nan nan nan nan nan nan nan nan nan nan nan nan nan nan nan nan nan nan nan nan nan nan 37 43 48 51 37 24 24 34 41 36 27 23 20 12 8 11 9
nan nan nan nan nan nan nan nan nan nan 26 28 28 24 nan 26 32 33 32 nan nan 41 nan 39 39 33 31 26 29 32 28 29 31 32 29 30 38 34 nan nan nan 28 29 nan nan nan nan nan nan nan nan nan nan nan nan nan nan nan nan nan nan nan nan nan nan nan nan nan nan nan nan 35 46 49 46 36 29 30 36 37 34 27 26 20 9 10 14 15
nan nan nan nan nan nan nan nan nan nan nan nan 34 nan nan 30 nan nan 35 35 nan 39 nan 36 37 36 30 27 24 32 32 29 nan nan 27 30 33 nan nan 36 nan nan nan nan nan nan nan nan nan nan nan nan nan nan nan nan nan nan nan nan nan nan nan nan nan nan nan nan nan nan 33 42 45 52 48 40 39 39 39 36 33 29 29 28 16 15 19 15
Wind_Direction
nan nan nan nan nan nan nan nan nan nan nan nan nan nan nan nan nan nan nan nan nan nan nan nan nan nan nan nan nan nan nan nan nan nan nan nan 25 330 340 330 352 2 18 32 46 46 44 48 51 51 56 52 40 35 nan 33 7 17 34 51 26 354 348 343 340 349 340 334 347 11 12 12 353 355 357 3 262 261 257 243 236 225 219 223 214 207 205 221
nan nan nan nan nan nan nan nan nan nan nan nan nan nan nan nan nan nan nan nan nan nan nan nan nan nan nan nan nan nan nan nan nan nan nan nan nan 357 352 356 357 1 10 39 47 44 56 53 51 53 57 52 38 42 nan 0 nan 11 31 41 9 353 340 354 335 343 337 324 341 360 1 11 349 358 6 18 328 316 296 258 245 240 225 215 213 219 202 220
nan nan nan nan nan nan nan nan nan nan nan nan nan nan nan nan nan nan nan nan nan nan nan nan nan nan nan nan nan nan nan nan nan nan nan nan nan 353 356 1 4 0 14 38 42 54 58 70 64 55 64 67 37 nan 360 nan 11 5 30 nan 12 337 333 335 329 322 321 330 339 354 1 356 354 356 9 360 333 293 318 305 260 245 238 210 219 231 210 204
nan nan nan nan nan nan nan nan nan nan nan nan nan nan nan nan nan nan nan nan nan nan nan nan nan nan nan nan nan nan nan nan nan nan nan 350 347 350 353 358 8 9 30 nan 62 58 59 72 82 75 81 60 nan nan nan nan nan nan nan nan 350 335 328 321 322 320 312 332 352 345 339 335 352 353 3 9 356 264 279 21 278 256 258 245 232 245 247 242
nan nan nan nan nan nan nan nan nan nan nan nan nan nan nan nan nan nan nan nan nan nan nan nan nan nan nan nan nan nan nan nan nan nan nan 334 335 343 349 359 6 19 nan nan nan 70 70 77 82 nan nan 75 54 nan 343 334 nan nan 50 342 358 319 299 289 295 286 311 351 337 331 335 326 334 346 332 8 15 303 342 25 28 284 280 284 281 267 255 248
nan nan nan nan nan nan nan nan nan nan nan nan nan nan nan nan nan nan nan nan nan nan nan nan nan nan nan nan nan nan nan nan nan nan 282 289 323 337 345 355 10 nan nan nan nan 65 65 65 nan nan nan 46 nan nan nan nan nan 356 nan 221 257 293 299 294 274 266 282 299 298 326 335 341 330 324 329 323 300 329 342 16 7 329 316 297 292 284 263 260
nan nan nan nan nan nan nan nan nan nan nan nan nan nan nan nan nan nan nan nan nan nan nan nan nan nan nan nan nan nan nan nan nan nan 304 316 329 337 338 351 2 34 nan nan 55 64 54 nan nan nan nan nan nan nan nan 257 296 281 329 55 294 292 292 302 315 318 305 288 301 15 359 353 344 327 322 319 338 321 345 2 340 318 312 297 297 295 297 285
nan nan nan nan nan nan nan nan nan nan nan nan nan nan nan nan nan nan nan nan nan nan nan nan nan nan nan nan nan nan nan nan nan nan 327 315 325 326 332 nan nan nan nan nan 54 55 70 74 nan nan nan nan nan nan nan nan nan 292 74 278 327 286 275 301 322 324 330 313 358 118 10 322 329 320 335 316 331 309 317 342 328 309 316 312 316 313 295 281
nan nan nan nan nan nan nan nan nan nan nan nan nan nan nan nan nan nan nan nan nan nan nan nan nan nan nan nan nan nan nan nan nan nan 325 nan nan nan nan nan nan nan nan nan 61 71 72 68 nan nan nan nan nan nan nan nan 318 333 337 331 279 263 304 340 329 313 319 333 343 353 332 344 301 2 330 318 316 331 308 307 306 317 326 321 325 310 308 302
nan nan nan nan nan nan nan nan nan nan nan nan nan nan nan nan nan nan nan nan nan nan nan nan nan nan nan nan nan nan nan nan nan nan nan nan nan nan nan nan nan nan nan nan 60 66 65 nan nan nan nan nan nan nan nan nan nan 297 306 287 270 291 305 325 328 327 343 331 337 335 306 95 35 17 321 331 317 329 320 314 315 326 338 347 325 308 308 307
nan nan nan nan nan nan nan nan nan nan nan nan nan nan nan nan nan nan nan nan nan nan nan nan nan nan nan nan nan nan nan nan nan nan nan nan nan nan nan nan nan nan nan nan 58 62 83 nan nan nan nan nan nan 311 338 nan nan 279 251 277 291 325 324 nan 3 329 4 350 345 327 355 65 31 43 284 325 317 312 330 310 310 317 321 334 319 317 309 304
nan nan nan nan nan nan nan nan nan nan nan nan nan nan nan nan nan nan nan nan nan nan nan nan nan nan nan nan nan nan nan nan nan nan nan nan nan nan nan nan nan nan nan nan 51 nan nan nan nan nan nan nan nan nan nan nan 310 291 320 342 335 336 33 26 331 342 358 358 343 343 351 17 40 22 307 308 311 307 315 307 307 321 318 326 324 316 314 307
nan nan nan nan nan nan nan nan nan nan nan nan nan nan nan nan nan nan nan nan nan nan nan nan nan nan nan nan nan nan nan nan nan nan nan nan nan nan nan nan nan nan nan nan nan nan nan nan nan nan nan nan nan nan nan nan nan 308 313 0 7 358 28 1 349 3 348 340 354 354 342 340 357 346 332 291 309 308 295 311 322 313 311 308 319 318 314 310
nan nan nan nan nan nan nan nan nan nan nan nan nan nan nan nan nan nan nan nan nan nan nan nan nan nan nan nan nan nan nan nan nan nan nan nan nan nan nan nan nan nan nan nan nan nan nan nan nan nan nan nan nan nan nan nan nan nan nan nan 33 nan 27 6 10 356 353 350 1 10 340 331 6 342 316 311 316 351 294 303 312 300 311 311 311 306 306 308
nan nan nan nan nan nan nan nan nan nan nan nan nan nan nan nan nan nan nan nan nan nan nan nan nan nan nan nan nan nan nan nan nan nan nan nan nan nan nan nan nan nan nan nan nan nan nan nan nan nan nan nan nan nan nan nan 274 nan 202 nan nan nan nan nan 1 348 353 348 1 12 359 332 337 13 353 344 338 347 317 320 311 300 310 308 305 301 301 302
nan nan nan nan nan nan nan nan nan nan nan nan nan nan nan nan nan nan nan nan nan nan nan nan nan nan nan nan nan nan nan nan nan nan nan nan nan nan nan nan nan nan nan nan nan nan nan nan nan nan nan nan nan nan nan 293 312 322 3 45 56 nan nan 340 352 343 340 340 343 6 353 338 345 10 344 11 342 357 315 325 61 347 313 308 308 306 294 301
nan nan nan nan nan nan nan nan nan nan nan nan nan nan nan nan nan nan nan nan nan nan nan 234 nan nan nan nan nan nan nan nan nan nan nan nan nan nan nan nan nan nan nan nan nan nan nan nan nan nan nan nan nan nan nan 258 341 354 15 43 43 nan nan 331 339 340 339 339 346 355 357 352 347 0 358 1 3 10 293 325 0 351 312 326 324 314 294 300
nan nan nan nan nan nan nan nan nan nan nan nan nan nan nan nan nan nan nan nan nan nan nan nan nan nan nan nan nan nan nan nan nan nan nan nan nan nan nan nan nan nan nan nan nan nan nan nan nan nan nan nan nan nan nan 320 340 17 21 41 49 nan nan 325 324 333 343 346 351 347 354 356 353 6 4 358 358 34 329 344 354 337 333 334 328 317 317 309
nan nan nan nan nan nan nan nan nan nan nan nan nan nan nan nan nan nan nan nan nan nan nan nan nan nan nan nan nan nan nan nan nan nan nan nan nan nan nan nan nan nan nan nan nan nan nan nan nan nan nan nan nan nan nan nan nan nan nan nan nan nan nan nan nan 328 nan 344 346 343 346 338 342 33 358 345 359 0 0 319 251 359 313 331 325 332 344 348
nan nan nan nan nan nan nan nan nan nan nan nan nan nan nan 267 266 255 nan nan nan nan nan nan nan nan nan nan nan nan nan nan nan nan nan nan nan nan nan nan nan nan nan nan nan nan nan nan nan nan nan nan nan nan nan nan nan nan nan nan nan nan nan nan nan nan nan nan nan 321 334 351 347 21 353 351 352 353 356 358 328 10 312 327 342 323 341 338
nan nan nan nan nan nan nan nan nan nan nan nan nan nan nan nan nan nan nan nan nan nan nan nan nan nan nan nan nan nan nan nan nan nan nan nan nan nan nan nan nan nan nan nan nan nan nan nan nan nan nan nan nan nan nan nan nan nan nan nan nan nan nan nan nan nan nan nan nan 312 331 326 353 354 357 349 357 358 354 354 331 327 309 319 269 289 303 325
nan nan nan nan nan nan nan nan nan nan nan nan nan nan nan nan nan nan nan nan nan nan nan nan nan nan nan nan nan nan nan nan nan nan nan nan nan nan nan nan nan nan nan nan nan nan nan nan nan nan nan nan nan nan nan nan nan nan nan nan nan nan nan nan nan nan nan nan nan 336 339 315 311 336 0 350 353 356 355 349 315 280 299 274 284 281 318 335
nan nan nan nan nan nan nan nan nan nan nan nan nan nan nan nan nan nan nan nan nan nan nan nan nan nan nan nan nan nan nan nan nan nan nan nan nan nan nan nan nan nan nan nan nan nan nan nan nan nan nan nan nan nan nan nan nan nan nan nan nan nan nan nan nan nan nan nan nan nan nan 316 307 325 350 352 340 349 354 340 343 297 252 208 214 273 312 354
nan nan nan nan nan nan nan nan nan nan nan nan nan nan nan nan nan nan nan nan nan nan nan nan nan nan nan nan nan nan nan nan nan nan nan nan nan nan nan nan nan nan nan nan nan nan nan nan nan nan nan nan nan nan nan nan nan nan nan nan nan nan nan nan nan 339 nan 298 nan nan nan nan 309 313 321 342 335 341 351 346 344 317 324 310 254 176 273 5
nan nan nan nan nan nan nan nan nan nan nan nan nan nan nan nan nan nan nan nan nan nan nan nan nan nan nan nan nan nan nan nan nan nan nan nan nan nan nan nan nan nan nan nan nan nan nan nan nan nan nan nan nan nan nan nan nan nan nan nan nan nan nan nan nan nan nan 311 nan nan nan 295 297 288 285 334 348 356 349 343 333 302 282 269 283 25 324 295
nan nan nan nan nan nan nan nan nan nan nan nan nan nan nan nan nan nan nan nan nan nan nan nan nan nan nan nan nan nan nan nan nan nan nan nan nan nan nan nan nan nan nan nan nan nan nan nan nan nan nan nan nan nan nan nan nan nan nan nan nan nan nan nan nan nan nan nan 315 nan nan 296 280 281 322 2 2 356 338 339 343 321 284 266 294 304 314 291
nan nan nan nan nan nan nan nan nan nan nan nan nan nan nan nan nan nan nan nan nan nan nan nan nan nan nan nan nan nan nan nan nan nan nan nan nan nan nan nan nan nan nan nan nan nan nan nan nan nan nan nan nan nan nan nan nan nan nan nan nan nan nan nan nan nan nan nan 286 nan 292 291 286 309 17 350 355 353 344 332 344 324 307 302 287 281 275 292
nan nan nan nan nan nan nan nan nan nan nan nan nan nan nan nan nan nan nan nan nan nan nan nan nan nan nan nan nan nan nan nan nan nan nan nan nan nan nan nan nan nan nan nan nan nan nan nan nan nan nan nan nan nan nan nan nan nan nan nan nan nan nan nan nan nan nan nan nan 298 nan 291 304 347 8 347 347 345 346 341 350 346 325 311 289 285 315 320
nan nan nan nan nan nan nan nan nan nan nan nan nan nan nan nan nan nan nan nan nan nan nan nan nan nan nan nan nan nan nan nan nan nan nan nan nan nan nan nan nan nan nan nan nan nan nan nan nan nan nan nan nan nan nan nan nan nan nan nan nan nan nan nan nan nan nan nan nan nan nan nan 335 334 336 341 342 339 345 345 348 342 335 323 293 290 298 266
nan nan nan nan nan nan nan nan nan nan nan nan nan nan nan nan nan nan nan nan nan nan nan nan nan nan nan nan nan nan nan nan nan nan nan nan nan nan nan nan nan nan nan nan nan nan nan nan nan nan nan nan nan nan nan nan nan nan nan nan nan nan nan nan nan nan nan nan nan nan nan nan nan 314 321 332 317 344 336 330 335 333 331 325 297 284 288 290
nan nan nan nan nan nan nan nan nan nan nan nan nan nan nan nan nan nan nan nan nan nan nan nan nan nan nan nan nan nan nan nan nan nan nan nan nan nan nan nan nan nan nan nan nan nan nan nan nan nan nan nan nan nan nan nan nan nan nan nan nan nan nan nan nan nan nan nan nan nan nan nan nan 295 312 327 338 349 319 325 330 336 332 335 322 296 279 230
nan nan nan nan nan nan nan nan nan nan nan nan nan nan nan nan nan nan nan nan nan nan nan nan nan nan nan nan nan nan nan nan nan nan nan nan nan nan nan nan nan nan nan nan nan nan nan nan nan nan nan nan nan nan nan nan nan nan nan nan nan nan nan nan nan nan 292 nan nan nan nan nan nan nan 299 nan 303 308 313 319 333 340 338 339 342 292 250 247
nan nan nan nan nan nan nan nan nan nan nan nan nan nan nan nan nan nan nan nan nan nan nan nan nan nan nan nan nan nan nan nan nan nan nan nan nan nan nan nan nan nan nan nan nan nan nan nan nan nan nan nan nan nan nan nan nan nan nan nan nan nan nan nan nan nan nan nan nan nan nan nan nan 297 nan nan nan 291 301 309 325 346 346 345 336 301 270 272
nan nan nan nan nan nan nan nan nan nan nan nan nan nan nan nan nan nan nan nan nan nan nan nan nan nan nan nan nan nan nan nan nan nan nan nan nan nan nan nan nan nan nan nan nan nan nan nan nan nan nan nan nan nan nan nan nan nan nan nan nan nan nan nan nan nan nan nan nan nan nan 298 nan 314 nan nan nan 294 292 310 332 352 350 349 353 321 260 265
nan nan nan nan nan nan nan nan nan nan nan nan nan nan nan nan nan nan nan nan nan nan nan nan nan nan nan nan nan nan nan nan nan nan nan nan nan nan nan nan nan nan nan nan nan nan nan nan nan nan nan nan nan nan nan nan nan nan nan nan nan nan nan nan nan nan nan nan nan nan 267 nan nan 321 nan nan 297 286 281 285 304 319 329 348 357 346 292 265
nan nan nan nan nan nan nan nan nan nan nan nan nan nan nan nan nan nan nan nan nan nan nan nan nan nan nan nan nan nan nan nan nan nan nan nan nan nan nan nan nan nan nan nan nan nan nan nan nan nan nan nan nan nan nan nan nan nan nan nan nan nan nan nan nan nan nan nan nan nan nan nan nan nan nan 292 293 292 289 301 321 327 317 350 5 19 289 283
nan nan nan nan nan nan nan nan nan nan nan nan nan nan nan nan nan nan nan nan nan nan nan nan nan nan nan nan nan nan nan nan nan nan nan nan nan nan nan nan nan nan nan nan nan nan nan nan nan nan nan nan nan nan nan nan nan nan nan nan nan nan nan nan nan nan nan nan nan nan nan nan nan nan nan 304 297 298 300 312 311 311 314 327 43 58 261 89
nan nan nan nan nan nan nan nan nan nan nan nan nan nan nan nan nan nan nan nan nan nan nan nan nan nan nan nan nan nan nan nan nan nan nan nan nan nan nan nan nan nan nan nan nan nan nan nan nan nan nan nan nan nan nan nan nan nan nan nan nan nan nan nan nan nan nan nan nan nan nan nan nan nan nan 302 300 301 305 317 310 317 333 326 23 91 120 195
nan nan nan nan nan nan nan nan nan nan nan nan nan nan nan nan nan nan nan nan nan nan nan nan nan nan nan nan nan nan nan nan nan nan nan nan nan nan nan nan nan nan nan nan nan nan nan nan nan nan nan nan nan nan nan nan nan nan nan nan nan nan nan nan nan nan nan nan nan nan nan nan nan nan nan 285 316 315 314 309 309 320 331 327 300 269 107 214
nan nan nan nan nan nan nan nan nan nan nan nan nan nan nan nan nan nan nan nan nan nan nan nan nan nan nan nan nan nan nan nan nan nan nan nan nan nan nan nan nan nan nan nan nan nan nan nan nan nan nan nan nan nan nan nan nan nan nan nan nan nan nan nan nan nan nan nan nan nan nan nan nan nan 286 299 307 313 311 301 316 323 326 333 342 342 320 237
nan nan nan nan nan nan nan nan nan nan nan nan nan nan nan nan nan nan nan nan nan nan nan nan nan nan nan nan nan nan nan nan nan nan nan nan nan nan nan nan nan nan nan nan nan nan nan nan nan nan nan nan nan nan nan nan nan nan nan nan nan nan nan nan nan nan nan nan nan nan nan nan nan nan nan 272 291 306 300 294 313 331 327 328 345 347 288 317
nan nan nan nan nan nan nan nan nan nan nan nan nan nan nan nan nan nan nan nan nan nan nan nan nan nan 203 201 nan nan nan nan nan nan nan nan nan nan nan nan nan nan nan nan nan nan nan nan nan nan nan nan nan nan nan nan nan nan nan nan nan nan nan nan nan nan nan nan nan nan nan 275 272 nan 280 286 292 296 295 296 311 346 333 330 351 1 331 333
nan nan nan nan nan nan nan nan nan nan nan nan nan nan nan nan nan nan nan nan nan nan nan nan nan nan 219 222 203 154 nan nan nan nan nan nan nan nan nan nan nan nan nan nan nan nan nan nan nan nan nan nan nan nan nan nan nan nan nan nan nan nan nan nan nan nan nan nan nan nan nan nan nan 288 289 296 298 297 302 309 325 340 341 346 4 17 356 334
nan nan nan nan nan nan nan nan nan nan nan nan nan nan nan nan nan nan nan nan nan nan nan nan nan nan 208 nan nan nan 182 180 nan nan nan nan nan nan nan nan nan nan nan nan nan nan nan nan nan nan nan nan nan nan nan nan nan nan nan nan nan nan nan nan nan nan nan nan nan nan nan 280 286 297 296 295 295 296 311 334 330 337 347 354 14 18 11 5
nan nan nan nan nan nan nan nan nan nan nan 219 207 196 nan nan nan nan nan nan nan nan nan nan nan 217 nan nan nan 200 200 175 180 nan nan nan nan nan nan nan nan nan nan nan nan nan nan nan nan nan nan nan nan nan nan nan nan nan nan nan nan nan nan nan nan nan nan nan nan nan nan nan 295 302 290 294 299 310 334 347 343 338 340 334 353 30 15 33
nan nan nan nan nan nan nan nan nan nan nan 221 215 201 188 nan nan nan nan nan nan nan nan 209 nan 219 211 nan 212 210 202 169 163 178 nan nan nan nan nan nan nan nan 207 195 172 nan nan nan nan nan nan nan nan nan nan nan nan nan nan nan nan nan nan nan nan nan nan nan nan nan nan 299 nan nan nan nan 305 309 336 351 351 346 336 323 332 353 18 31
nan nan nan nan nan nan nan nan nan nan nan nan nan 213 197 191 nan nan nan nan nan nan nan 221 220 nan 213 210 218 214 nan nan 174 175 168 nan nan 171 nan nan nan nan 203 197 173 nan nan nan nan nan nan nan nan nan nan nan nan nan nan nan nan nan nan nan nan nan nan nan nan nan 296 nan nan nan nan 298 291 303 314 313 312 325 336 331 318 329 356 326
nan nan nan nan nan nan nan nan nan nan 222 228 221 213 203 193 186 nan nan nan nan nan nan 227 nan nan 228 215 219 212 nan nan 188 184 175 181 178 181 nan nan nan 218 nan nan nan nan nan nan nan nan nan nan nan nan nan nan nan nan nan nan nan nan nan nan nan nan nan nan nan 252 nan nan nan nan nan 293 294 295 300 291 293 306 311 301 314 330 316 295
nan nan nan nan nan nan nan nan nan 228 239 233 215 209 204 199 185 168 nan nan nan nan 226 nan 213 nan nan 221 221 214 218 210 201 199 187 183 187 189 188 nan nan nan nan nan nan nan nan nan nan nan nan nan nan nan nan nan nan nan nan nan nan nan nan nan nan nan nan nan nan nan 310 nan nan nan nan nan 282 nan 275 286 282 283 282 286 305 322 302 284
nan nan nan nan nan nan nan nan nan nan 226 247 226 213 205 196 nan 170 170 nan nan nan 221 204 nan nan nan nan 224 222 224 210 208 209 197 190 191 190 184 176 198 192 nan nan nan nan nan nan nan nan nan nan nan nan nan nan nan nan nan nan nan nan nan nan nan nan nan nan nan nan nan 263 259 258 265 271 275 278 258 254 254 254 281 296 297 315 323 349
nan nan nan nan nan nan nan nan nan nan 223 242 229 219 nan 191 178 173 167 nan nan 215 nan 223 209 208 216 217 223 229 223 209 207 219 207 199 201 193 nan nan nan 197 178 nan nan nan nan nan nan nan nan nan nan nan nan nan nan nan nan nan nan nan nan nan nan nan nan nan nan nan nan 262 260 267 268 268 275 279 275 276 278 287 286 267 267 350 358 359
nan nan nan nan nan nan nan nan nan nan nan nan 213 nan nan 194 nan nan 185 196 nan 230 nan 222 222 219 214 214 215 231 224 204 nan nan 202 203 203 nan nan 177 nan nan nan nan nan nan nan nan nan nan nan nan nan nan nan nan nan nan nan nan nan nan nan nan nan nan nan nan nan nan 249 255 259 262 264 264 267 270 273 277 284 298 310 312 327 357 357 4